FW7822 Weather Reports


time (UTC)temp
C
wind
direction
speed
KPH
gust
KPH
rain 1hr
cm
rain 24hr
cm
rain mn
cm
humidity
%
barometer
mb
20260906103408 20 97 1.6 3.2 0.00 0.00 0.00 96 1018.0
20260906102908 20 192 1.6 3.2 0.00 0.00 0.00 96 1018.0
20260906102408 20 108 0.0 3.2 0.00 0.00 0.00 96 1018.1
20260906101908 20 142 1.6 3.2 0.00 0.00 0.00 95 1018.1
20260906101409 20 88 3.2 3.2 0.00 0.00 0.00 95 1018.1
20260906100908 20 102 1.6 3.2 0.00 0.00 0.00 95 1018.1
20260906100408 20 84 3.2 6.4 0.00 0.00 0.00 95 1018.2
20260906095909 20 140 1.6 3.2 0.00 0.00 0.00 95 1018.1
20260906095409 20 127 1.6 4.8 0.00 0.00 0.00 96 1018.0
20260906094908 20 80 3.2 6.4 0.00 0.00 0.00 96 1017.9
20260906094409 20 85 0.0 1.6 0.00 0.00 0.00 96 1017.8
20260906093908 20 189 1.6 3.2 0.00 0.00 0.00 96 1017.6
20260906093410 20 181 1.6 3.2 0.00 0.00 0.00 96 1017.5
20260906092908 20 183 0.0 1.6 0.00 0.00 0.00 96 1017.4
20260906092408 20 55 0.0 1.6 0.00 0.00 0.00 96 1017.3
20260906091908 20 80 3.2 6.4 0.00 0.00 0.00 96 1017.2
20260906091408 20 74 3.2 6.4 0.00 0.00 0.00 96 1017.1
20260906090908 20 123 1.6 4.8 0.00 0.00 0.00 95 1017.1
20260906090409 20 123 1.6 3.2 0.00 0.00 0.00 95 1017.0
20260906085909 20 97 4.8 6.4 0.00 0.00 0.00 95 1017.0
20260906085408 20 142 1.6 6.4 0.00 0.00 0.00 95 1017.0
20260906084908 20 119 3.2 8.0 0.00 0.00 0.00 95 1017.2
20260906084408 20 80 4.8 8.0 0.00 0.00 0.00 95 1017.2
20260906083908 20 86 4.8 8.0 0.00 0.00 0.00 95 1017.1
20260906083408 20 62 3.2 6.4 0.00 0.00 0.00 95 1017.2
20260906082908 20 27 0.0 1.6 0.00 0.00 0.00 95 1017.2
20260906082409 20 60 1.6 3.2 0.00 0.00 0.00 95 1017.2
20260906081909 20 45 1.6 3.2 0.00 0.00 0.00 95 1017.2
20260906081408 21 343 0.0 1.6 0.00 0.00 0.00 95 1017.2
20260906080908 21 164 0.0 1.6 0.00 0.00 0.00 94 1017.1
20260906080409 21 89 1.6 1.6 0.00 0.00 0.00 94 1017.1
20260906075908 21 83 4.8 8.0 0.00 0.00 0.00 94 1017.1
20260906075408 21 56 0.0 3.2 0.00 0.00 0.00 94 1017.1
20260906074908 21 104 4.8 9.7 0.00 0.00 0.00 94 1017.1
20260906074410 21 83 6.4 8.0 0.00 0.00 0.00 94 1017.1
20260906073908 21 101 3.2 4.8 0.00 0.00 0.00 94 1017.2
20260906073408 21 92 3.2 4.8 0.00 0.00 0.00 94 1017.2
20260906072908 21 90 3.2 6.4 0.00 0.00 0.00 95 1017.4
20260906072408 21 71 3.2 6.4 0.00 0.00 0.00 95 1017.4
20260906071908 21 64 1.6 6.4 0.00 0.00 0.00 95 1017.3
20260906071409 21 68 0.0 3.2 0.00 0.00 0.00 95 1017.3
20260906070909 21 58 1.6 3.2 0.00 0.00 0.00 95 1017.4
20260906070408 21 53 1.6 3.2 0.00 0.00 0.00 95 1017.5
20260906065908 21 26 1.6 3.2 0.00 0.00 0.00 95 1017.5
20260906065408 21 360 1.6 3.2 0.00 0.00 0.00 95 1017.6
20260906064908 21 87 1.6 3.2 0.00 0.00 0.00 95 1017.6
20260906064408 21 306 0.0 1.6 0.00 0.00 0.00 95 1017.6
20260906063910 21 49 0.0 1.6 0.00 0.00 0.00 95 1017.6
20260906063408 21 82 1.6 3.2 0.00 0.00 0.00 95 1017.7
20260906062908 21 348 1.6 3.2 0.00 0.00 0.00 95 1017.8
20260906062408 21 289 1.6 3.2 0.00 0.00 0.00 95 1017.8
20260906061909 21 316 1.6 3.2 0.00 0.00 0.00 95 1017.8
20260906061409 21 266 0.0 1.6 0.00 0.00 0.00 94 1017.7
20260906060909 21 358 0.0 3.2 0.00 0.00 0.00 94 1017.6
20260906060408 21 318 1.6 3.2 0.00 0.00 0.00 94 1017.7
20260906055908 21 79 0.0 3.2 0.00 0.00 0.00 94 1017.7
20260906055408 21 234 0.0 1.6 0.00 0.00 0.00 93 1017.8
20260906054908 21 312 1.6 3.2 0.00 0.00 0.00 93 1017.8
20260906054409 22 330 0.0 3.2 0.00 0.00 0.00 93 1017.7
20260906053908 22 267 0.0 1.6 0.00 0.00 0.00 92 1017.6
20260906053408 22 300 0.0 1.6 0.00 0.00 0.00 92 1017.6
20260906052908 22 309 0.0 1.6 0.00 0.00 0.00 91 1017.5
20260906052408 22 89 1.6 3.2 0.00 0.00 0.00 91 1017.4
20260906051910 22 50 0.0 1.6 0.00 0.00 0.00 91 1017.4
20260906051408 22 16 1.6 3.2 0.00 0.00 0.00 91 1017.4
20260906050909 22 212 0.0 0.0 0.00 0.00 0.00 91 1017.3
20260906050408 22 17 1.6 1.6 0.00 0.00 0.00 90 1017.2
20260906045908 22 7 1.6 3.2 0.00 0.00 0.00 90 1017.2
20260906045408 22 2 0.0 1.6 0.00 0.00 0.00 90 1017.2
20260906044909 22 75 3.2 4.8 0.00 0.00 0.00 89 1017.1
20260906044408 22 57 1.6 4.8 0.00 0.00 0.00 90 1017.2
20260906043908 22 78 3.2 4.8 0.00 0.00 0.00 90 1017.2
20260906043408 22 84 4.8 8.0 0.00 0.00 0.00 90 1017.2
20260906042908 23 94 3.2 6.4 0.00 0.00 0.00 90 1017.3
20260906042408 23 78 1.6 3.2 0.00 0.00 0.00 90 1017.3
20260906041908 23 40 1.6 3.2 0.00 0.00 0.00 91 1017.2
20260906041409 23 73 1.6 3.2 0.00 0.00 0.00 91 1017.2
20260906040908 23 149 0.0 4.8 0.00 0.00 0.00 91 1017.3
20260906040408 23 87 0.0 4.8 0.00 0.00 0.00 91 1017.4
20260906035908 23 75 0.0 1.6 0.00 0.00 0.00 91 1017.3
20260906035409 23 8 0.0 1.6 0.00 0.00 0.00 91 1017.2
20260906034909 23 306 0.0 1.6 0.00 0.00 0.00 91 1017.2
20260906034410 23 347 1.6 3.2 0.00 0.00 0.00 90 1017.2
20260906033908 23 359 1.6 3.2 0.00 0.00 0.00 90 1017.2
20260906033409 23 257 0.0 1.6 0.00 0.00 0.00 90 1017.2
20260906032908 23 76 1.6 4.8 0.00 0.00 0.00 90 1017.1
20260906032408 23 78 1.6 4.8 0.00 0.00 0.00 90 1017.1
20260906031908 23 90 3.2 8.0 0.00 0.00 0.00 90 1017.0
20260906031409 23 26 1.6 3.2 0.00 0.00 0.00 90 1017.0
20260906030909 23 72 0.0 1.6 0.00 0.00 0.00 89 1017.0
20260906030408 23 24 1.6 3.2 0.00 0.00 0.00 89 1016.9
20260906025909 23 80 3.2 6.4 0.00 0.00 0.00 89 1016.8
20260906025415 23 89 1.6 4.8 0.00 0.00 0.00 88 1016.8
20260906024908 23 68 3.2 9.7 0.00 0.00 0.00 88 1016.7
20260906024409 23 17 1.6 3.2 0.00 0.00 0.00 89 1016.6
20260906023908 23 61 1.6 3.2 0.00 0.00 0.00 89 1016.6
20260906023408 23 10 1.6 3.2 0.00 0.00 0.00 89 1016.5
20260906022908 23 20 1.6 3.2 0.00 0.00 0.00 89 1016.5
20260906022408 23 16 0.0 1.6 0.00 0.00 0.00 89 1016.4
20260906021908 23 38 0.0 1.6 0.00 0.00 0.00 89 1016.3
20260906021408 24 308 0.0 1.6 0.00 0.00 0.00 89 1016.3
20260906020908 24 11 1.6 3.2 0.00 0.00 0.00 89 1016.2
20260906020408 24 321 0.0 1.6 0.00 0.00 0.00 89 1016.1
20260906015908 24 338 1.6 1.6 0.00 0.00 0.00 88 1016.1
20260906015408 24 354 0.0 1.6 0.00 0.00 0.00 89 1016.0
20260906014909 24 285 0.0 0.0 0.00 0.00 0.00 88 1015.9
20260906014408 24 329 0.0 1.6 0.00 0.00 0.00 88 1015.8
20260906013911 24 360 1.6 3.2 0.00 0.00 0.00 88 1015.8
20260906013409 24 343 1.6 3.2 0.00 0.00 0.00 88 1015.7
20260906012908 24 360 1.6 3.2 0.00 0.00 0.00 88 1015.6
20260906012408 24 1 1.6 3.2 0.00 0.00 0.00 88 1015.6
20260906011909 24 337 0.0 1.6 0.00 0.00 0.00 88 1015.6
20260906011408 24 346 1.6 3.2 0.00 0.00 0.00 88 1015.6
20260906010908 24 277 0.0 0.0 0.00 0.00 0.00 87 1015.6
20260906010408 25 33 1.6 3.2 0.00 0.00 0.00 87 1015.6
20260906005910 25 8 3.2 4.8 0.00 0.00 0.00 87 1015.7
20260906005411 25 360 1.6 4.8 0.00 0.00 0.00 86 1015.7
20260906004908 25 16 1.6 3.2 0.00 0.00 0.00 86 1015.6
20260906004408 25 345 1.6 3.2 0.00 0.00 0.00 86 1015.5
20260906003908 25 330 0.0 1.6 0.00 0.00 0.00 85 1015.5
20260906003408 25 304 1.6 3.2 0.00 0.00 0.00 84 1015.4
20260906002908 25 67 0.0 0.0 0.00 0.00 0.00 84 1015.3
20260906002408 25 58 0.0 1.6 0.00 0.00 0.00 83 1015.4
20260906001908 26 346 0.0 1.6 0.00 0.00 0.00 83 1015.4
20260906001408 26 343 0.0 1.6 0.00 0.00 0.00 82 1015.4
20260906000909 26 12 1.6 3.2 0.00 0.00 0.00 82 1015.4
20260906000410 26 113 1.6 4.8 0.00 0.00 0.00 81 1015.3
20260905235909 26 28 0.0 3.2 0.00 0.00 0.00 81 1015.4
20260905235408 26 360 0.0 0.0 0.00 0.00 0.00 81 1015.4
20260905234909 26 58 0.0 1.6 0.00 0.00 0.00 81 1015.4
20260905234408 26 351 1.6 3.2 0.00 0.00 0.00 82 1015.4
20260905233909 26 44 0.0 3.2 0.00 0.00 0.00 81 1015.4
20260905233408 27 269 0.0 0.0 0.00 0.00 0.00 80 1015.3
20260905232908 27 291 0.0 1.6 0.00 0.00 0.00 79 1015.3
20260905232408 27 52 0.0 1.6 0.00 0.00 0.00 80 1015.3
20260905231908 27 348 1.6 3.2 0.00 0.00 0.00 80 1015.3
20260905231410 27 7 0.0 1.6 0.00 0.00 0.00 80 1015.3
20260905230908 27 36 1.6 3.2 0.00 0.00 0.00 79 1015.3
20260905230409 27 7 1.6 3.2 0.00 0.00 0.00 80 1015.2
20260905225909 27 142 1.6 4.8 0.00 0.00 0.00 79 1015.1
20260905225408 27 17 1.6 3.2 0.00 0.00 0.00 79 1015.0
20260905224909 27 24 3.2 3.2 0.00 0.00 0.00 79 1014.9
20260905224408 28 111 3.2 6.4 0.00 0.00 0.00 78 1014.7
20260905223908 28 21 1.6 3.2 0.00 0.00 0.00 78 1014.7
20260905223408 28 84 8.0 16.1 0.00 0.00 0.00 76 1014.6
20260905222908 29 89 1.6 4.8 0.00 0.00 0.00 76 1014.5
20260905222408 29 61 4.8 11.3 0.00 0.00 0.00 75 1014.3
20260905221908 29 101 6.4 11.3 0.00 0.00 0.00 75 1014.2
20260905221408 29 73 4.8 11.3 0.00 0.00 0.00 75 1014.2
20260905220908 30 26 1.6 3.2 0.00 0.00 0.00 73 1014.4
20260905220409 30 19 3.2 4.8 0.00 0.00 0.00 74 1014.4
20260905215908 30 100 3.2 4.8 0.00 0.00 0.00 74 1014.4
20260905215408 30 70 1.6 4.8 0.00 0.00 0.00 74 1014.3
20260905214908 30 1 3.2 4.8 0.00 0.00 0.00 73 1014.2
20260905214408 30 30 3.2 6.4 0.00 0.00 0.00 72 1014.3
20260905213908 30 93 6.4 12.9 0.00 0.00 0.00 72 1014.2
20260905213408 30 42 3.2 8.0 0.00 0.00 0.00 73 1014.2
20260905212909 30 57 3.2 9.7 0.00 0.00 0.00 73 1014.3
20260905212409 30 87 3.2 11.3 0.00 0.00 0.00 73 1014.3
20260905211908 30 96 0.0 1.6 0.00 0.00 0.00 73 1014.4
20260905211408 30 41 3.2 6.4 0.00 0.00 0.00 73 1014.5
20260905210909 30 87 1.6 3.2 0.00 0.00 0.00 74 1014.6
20260905210409 30 130 1.6 3.2 0.00 0.00 0.00 74 1014.7
20260905205908 30 98 6.4 9.7 0.00 0.00 0.00 73 1014.7
20260905205408 30 51 0.0 3.2 0.00 0.00 0.00 74 1014.9
20260905204908 30 80 3.2 6.4 0.00 0.00 0.00 73 1015.0
20260905204408 30 69 3.2 4.8 0.00 0.00 0.00 73 1015.0
20260905203908 30 21 3.2 6.4 0.00 0.00 0.00 73 1015.1
20260905203408 30 11 6.4 11.3 0.00 0.00 0.00 71 1015.1
20260905202908 31 86 4.8 6.4 0.00 0.00 0.00 71 1015.1
20260905202408 31 49 3.2 6.4 0.00 0.00 0.00 70 1015.2
20260905201908 31 6 6.4 8.0 0.00 0.00 0.00 70 1015.3
20260905201408 31 9 6.4 9.7 0.00 0.00 0.00 71 1015.3
20260905200908 31 18 3.2 6.4 0.00 0.00 0.00 71 1015.4
20260905200411 31 19 4.8 9.7 0.00 0.00 0.00 71 1015.4
20260905195909 31 15 8.0 11.3 0.00 0.00 0.00 71 1015.4
20260905195409 31 25 4.8 9.7 0.00 0.00 0.00 71 1015.4
20260905194909 31 175 3.2 4.8 0.00 0.00 0.00 72 1015.5
20260905194408 31 16 6.4 8.0 0.00 0.00 0.00 70 1015.7
20260905193909 31 356 1.6 4.8 0.00 0.00 0.00 72 1015.7
20260905193408 30 92 3.2 8.0 0.00 0.00 0.00 73 1015.7
20260905192908 30 26 3.2 12.9 0.00 0.00 0.00 73 1015.6
20260905192408 30 17 6.4 9.7 0.00 0.00 0.00 73 1015.6
20260905191910 30 360 6.4 8.0 0.00 0.00 0.00 74 1015.7
20260905191408 30 14 8.0 11.3 0.00 0.00 0.00 73 1015.8
20260905190909 30 10 4.8 8.0 0.00 0.00 0.00 75 1015.9
20260905190408 30 20 4.8 8.0 0.00 0.00 0.00 74 1015.8
20260905185908 31 92 1.6 6.4 0.00 0.00 0.00 75 1016.0
20260905185408 31 13 4.8 8.0 0.00 0.00 0.00 74 1016.0
20260905184908 31 24 4.8 9.7 0.00 0.00 0.00 73 1015.9
20260905184408 31 23 1.6 6.4 0.00 0.00 0.00 73 1015.9
20260905183909 31 90 0.0 3.2 0.00 0.00 0.00 74 1015.9
20260905183409 31 105 3.2 11.3 0.00 0.00 0.00 72 1016.0
20260905182909 31 2 4.8 11.3 0.00 0.00 0.00 71 1016.1
20260905182409 31 15 3.2 8.0 0.00 0.00 0.00 73 1016.2
20260905181911 31 2 4.8 6.4 0.00 0.00 0.00 73 1016.2
20260905181408 31 20 4.8 8.0 0.00 0.00 0.00 73 1016.2
20260905180908 31 19 4.8 6.4 0.00 0.00 0.00 73 1016.2
20260905180410 31 8 3.2 6.4 0.00 0.00 0.00 71 1016.1
20260905175908 31 346 3.2 4.8 0.00 0.00 0.00 72 1016.1
20260905175409 31 357 0.0 1.6 0.00 0.00 0.00 72 1016.1
20260905174908 31 249 0.0 0.0 0.00 0.00 0.00 74 1016.0
20260905174408 30 55 1.6 3.2 0.00 0.00 0.00 73 1015.9
20260905173908 31 20 1.6 3.2 0.00 0.00 0.00 73 1015.9
20260905173409 31 360 3.2 6.4 0.00 0.00 0.00 73 1016.0
20260905172908 31 74 0.0 3.2 0.00 0.00 0.00 72 1016.0
20260905172408 31 86 6.4 12.9 0.00 0.00 0.00 72 1015.9
20260905171908 30 16 1.6 4.8 0.00 0.00 0.00 72 1015.9
20260905171409 30 104 1.6 4.8 0.00 0.00 0.00 73 1015.9
20260905170908 30 29 3.2 6.4 0.00 0.00 0.00 73 1015.9
20260905170409 30 9 1.6 4.8 0.00 0.00 0.00 74 1016.0
20260905165908 30 28 1.6 4.8 0.00 0.00 0.00 75 1016.0
20260905165408 30 17 1.6 3.2 0.00 0.00 0.00 75 1016.1
20260905164908 30 89 1.6 6.4 0.00 0.00 0.00 75 1016.1
20260905164408 30 23 1.6 4.8 0.00 0.00 0.00 75 1016.2
20260905163909 30 41 3.2 4.8 0.00 0.00 0.00 74 1016.2
20260905163408 30 47 1.6 3.2 0.00 0.00 0.00 75 1016.1
20260905162908 30 30 1.6 1.6 0.00 0.00 0.00 74 1016.2
20260905162408 30 65 3.2 4.8 0.00 0.00 0.00 75 1016.2
20260905161909 29 360 0.0 1.6 0.00 0.00 0.00 76 1016.2
20260905161409 29 56 1.6 3.2 0.00 0.00 0.00 76 1016.2
20260905160908 29 1 3.2 4.8 0.00 0.00 0.00 76 1016.1
20260905160408 30 2 3.2 4.8 0.00 0.00 0.00 75 1016.1
20260905155908 30 81 1.6 4.8 0.00 0.00 0.00 74 1016.1
20260905155408 30 37 3.2 4.8 0.00 0.00 0.00 75 1016.0
20260905154908 29 57 3.2 6.4 0.00 0.00 0.00 75 1016.0
20260905154408 29 6 4.8 6.4 0.00 0.00 0.00 74 1016.1
20260905153908 30 6 4.8 6.4 0.00 0.00 0.00 74 1016.1
20260905153409 30 23 3.2 8.0 0.00 0.00 0.00 73 1016.0
20260905152908 30 28 1.6 3.2 0.00 0.00 0.00 73 1016.0
20260905152408 29 341 0.0 3.2 0.00 0.00 0.00 74 1015.9
20260905151908 29 18 4.8 6.4 0.00 0.00 0.00 73 1015.8
20260905151409 29 360 1.6 4.8 0.00 0.00 0.00 74 1015.9
20260905150908 28 351 1.6 3.2 0.00 0.00 0.00 74 1015.8
20260905150408 28 48 1.6 3.2 0.00 0.00 0.00 75 1015.7
20260905145908 28 60 3.2 6.4 0.00 0.00 0.00 75 1015.7
20260905145409 28 8 1.6 4.8 0.00 0.00 0.00 76 1015.6
20260905144912 28 13 3.2 8.0 0.00 0.00 0.00 75 1015.5
20260905144409 28 10 1.6 3.2 0.00 0.00 0.00 76 1015.5
20260905143909 28 24 1.6 3.2 0.00 0.00 0.00 76 1015.5
20260905143408 28 355 0.0 3.2 0.00 0.00 0.00 77 1015.4
20260905142908 27 95 0.0 1.6 0.00 0.00 0.00 78 1015.3
20260905142408 27 79 1.6 3.2 0.00 0.00 0.00 79 1015.3
20260905141908 27 35 0.0 3.2 0.00 0.00 0.00 80 1015.4
20260905141409 26 25 1.6 3.2 0.00 0.00 0.00 81 1015.4
20260905140908 26 357 1.6 3.2 0.00 0.00 0.00 83 1015.5
20260905140409 26 359 3.2 4.8 0.00 0.00 0.00 82 1015.6
20260905135908 25 342 3.2 3.2 0.00 0.00 0.00 83 1015.6
20260905135410 25 353 0.0 1.6 0.00 0.00 0.00 85 1015.7
20260905134908 25 15 1.6 3.2 0.00 0.00 0.00 86 1015.6
20260905134414 24 10 1.6 3.2 0.00 0.00 0.00 87 1015.4
20260905133908 23 23 3.2 4.8 0.00 0.00 0.00 88 1015.3
20260905133409 23 344 3.2 6.4 0.00 0.00 0.00 89 1015.2
20260905132908 23 14 3.2 3.2 0.00 0.00 0.00 90 1015.0
20260905132408 23 15 1.6 3.2 0.00 0.00 0.00 90 1015.0
20260905131908 22 360 3.2 3.2 0.00 0.00 0.00 91 1014.9
20260905131409 22 325 1.6 3.2 0.00 0.00 0.00 92 1014.9
20260905130908 22 338 3.2 4.8 0.00 0.00 0.00 93 1014.9
20260905130409 22 333 3.2 4.8 0.00 0.00 0.00 93 1015.0
20260905125909 22 339 1.6 3.2 0.00 0.00 0.00 93 1014.7
20260905125410 22 316 0.0 1.6 0.00 0.00 0.00 94 1014.7
20260905124908 22 354 3.2 3.2 0.00 0.00 0.00 94 1014.6
20260905124409 22 352 1.6 3.2 0.00 0.00 0.00 95 1014.5
20260905123908 22 337 1.6 3.2 0.00 0.00 0.00 95 1014.5
20260905123408 22 337 1.6 3.2 0.00 0.00 0.00 95 1014.5
20260905122908 21 355 3.2 4.8 0.00 0.00 0.00 96 1014.4
20260905122408 21 354 3.2 4.8 0.00 0.00 0.00 96 1014.4
20260905121908 21 330 3.2 3.2 0.00 0.00 0.00 96 1014.3
20260905121409 21 360 3.2 4.8 0.00 0.00 0.00 97 1014.2
20260905120909 21 349 3.2 3.2 0.00 0.00 0.00 97 1014.2
20260905120408 21 352 3.2 3.2 0.00 0.00 0.00 97 1014.2
20260905115908 21 312 1.6 3.2 0.00 0.00 0.00 97 1014.1
20260905115408 21 299 0.0 1.6 0.00 0.00 0.00 97 1014.1
20260905114909 21 278 0.0 1.6 0.00 0.00 0.00 97 1014.1
20260905114408 21 344 1.6 3.2 0.00 0.00 0.00 97 1014.1
20260905113908 21 336 3.2 4.8 0.00 0.00 0.00 97 1014.0
20260905113408 21 338 4.8 6.4 0.00 0.00 0.00 97 1014.0
20260905112908 21 339 3.2 4.8 0.00 0.00 0.00 97 1013.9
20260905112409 21 350 3.2 6.4 0.00 0.00 0.00 97 1013.8
20260905111909 21 325 3.2 4.8 0.00 0.00 0.00 97 1013.6
20260905111409 21 324 1.6 3.2 0.00 0.00 0.00 97 1013.6
20260905110909 21 324 0.0 1.6 0.00 0.00 0.00 97 1013.7
20260905110410 21 306 1.6 3.2 0.00 0.00 0.00 97 1013.9
20260905105909 21 346 3.2 3.2 0.00 0.00 0.00 97 1013.9
20260905105408 21 320 3.2 3.2 0.00 0.00 0.00 97 1014.0
20260905104908 21 316 1.6 3.2 0.00 0.00 0.00 97 1013.8
20260905104408 21 297 0.0 1.6 0.00 0.00 0.00 97 1013.8
20260905103909 21 314 0.0 1.6 0.00 0.00 0.00 97 1013.7